#timestamp,LO_Frequency,Hit,StdDev 
1598590815.2,286047002.3,N
1598590835.0,286047002.5,N
1598590835.9,286047002.5,N
1598590855.8,286046999.8,N
1598590875.6,286047002.5,N
1598590895.5,286047002.4,N
1598590915.3,286047002.8,N
1598590935.1,286047002.7,N
1598590955.9,286047002.4,N
1598590975.7,286047002.7,N
1598590995.5,286047002.0,N
1598591015.4,286047002.6,N
1598591035.2,286047001.3,N
1598591055.1,286047001.6,N
1598591056.0,286047001.6,N
1598591075.8,286047001.9,N
1598591095.6,286047002.1,N
1598591115.5,286047002.4,N
1598591135.3,286047004.3,Y
1598591155.1,286047000.3,P
1598591175.9,286047002.7,P
1598591195.7,286047000.9,N
1598591215.6,286046998.6,N
1598591235.4,286047000.9,N
1598591255.2,286047000.1,N
1598591275.1,286047000.6,N
1598591276.0,286047000.6,N
1598591295.8,286047001.2,N
1598591315.7,286047001.1,N
1598591335.5,286046998.5,N
1598591355.3,286046998.3,N
1598591375.2,286046998.1,N
1598591395.9,286047001.0,N
1598591415.7,286046998.2,N
1598591435.6,286047000.3,N
1598591455.4,286047001.2,N
1598591475.3,286046998.5,N
1598591495.1,286046999.1,N
1598591496.0,286046999.1,N
1598591515.8,286046996.6,N
1598591535.7,286046996.5,N
1598591555.5,286046998.3,N
1598591575.3,286047000.3,N
1598591595.2,286046999.0,N
1598591615.0,286046998.1,N
1598591615.9,286046998.1,N
1598591635.8,286047001.0,N
1598591655.6,286046998.2,N
1598591675.4,286047001.1,N
1598591695.3,286047001.0,N
1598591715.1,286047000.9,N
1598591735.8,286046998.8,N
1598591755.7,286046998.6,N
1598591775.5,286046998.7,N
1598591795.4,286046998.8,N
1598591815.2,286046998.7,N
1598591835.0,286047001.1,N
1598591835.9,286047001.1,N
1598591855.8,286046998.2,N
1598591875.6,286046998.4,N
1598591895.5,286046998.5,N
1598591915.3,286047000.4,N
1598591935.1,286046999.1,N
1598591955.9,286046997.3,N
1598591975.7,286046998.8,N
1598591995.5,286046998.8,N
1598592015.4,286046999.0,N
1598592035.2,286046998.4,N
1598592055.0,286046996.5,N
1598592056.0,286046996.5,N
1598592075.8,286046999.1,N
1598592095.6,286046999.5,N
1598592115.5,286046998.7,N
1598592135.3,286046998.4,N
1598592155.1,286046998.3,N
1598592175.9,286046999.3,N
1598592195.7,286046999.0,N
1598592215.6,286046996.6,N
1598592235.4,286046995.9,Y
1598592255.2,286046996.7,P
1598592275.1,286046998.8,N
1598592276.0,286046998.8,N
1598592295.8,286047001.2,N
1598592315.6,286046996.8,N
1598592335.5,286046999.2,N
1598592355.3,286046998.4,N
1598592375.2,286046997.1,N
1598592395.9,286046998.8,N
1598592415.7,286046997.4,N
1598592435.6,286046998.9,N
1598592455.4,286046998.5,N
1598592475.2,286047001.2,N
1598592495.1,286046998.8,N
1598592496.0,286046998.8,N
1598592515.8,286047000.8,N
1598592535.7,286047000.8,N
1598592555.5,286046998.6,N
1598592575.3,286046998.6,N
1598592595.2,286046998.9,N
1598592615.0,286047000.9,N
1598592615.9,286047000.9,N
1598592635.7,286047000.8,N
1598592655.6,286046998.1,N
1598592675.4,286046998.1,N
1598592695.3,286047001.0,N
1598592715.1,286047000.8,N
1598592716.0,286047000.8,N
1598592735.8,286047000.5,N
1598592755.7,286046999.9,N
1598592775.5,286047000.2,N
1598592795.4,286047002.4,N
1598592815.2,286046999.8,N
1598592835.0,286046999.7,N
1598592835.9,286046999.7,N
1598592855.8,286047002.4,N
1598592875.6,286046999.8,N
1598592895.4,286047001.0,N
1598592915.3,286046998.3,N
1598592935.1,286046998.5,N
1598592955.9,286047000.5,N
1598592975.7,286046999.8,N
1598592995.5,286046999.9,N
1598593015.4,286047001.1,N
1598593035.2,286047000.0,N
1598593055.1,286047000.6,N
1598593056.0,286047000.6,N
1598593075.8,286047000.6,N
1598593095.6,286047001.2,N
1598593115.5,286047000.6,N
1598593135.3,286046998.6,N
1598593155.1,286046998.5,N
1598593175.9,286046996.6,Y
1598593195.7,286046996.6,P
1598593215.6,286046998.6,N
1598593235.4,286047000.6,N
1598593255.2,286046999.4,N
1598593275.1,286046999.3,N
1598593276.0,286046999.3,N
1598593295.8,286046997.0,N
1598593315.6,286046999.2,N
1598593335.5,286046999.3,N
1598593355.3,286046999.3,N
1598593375.2,286046997.2,N
1598593395.9,286047000.6,N
1598593415.7,286047000.9,N
1598593435.6,286047001.2,N
1598593455.4,286046998.6,N
1598593475.3,286046997.3,N
1598593495.1,286046997.2,N
1598593496.0,286046997.2,N
1598593515.8,286046997.0,N
1598593535.7,286046997.0,N
1598593555.5,286046999.2,N
1598593575.3,286046996.6,N
1598593595.2,286046997.0,N
1598593615.0,286046999.6,N
1598593615.9,286046999.6,N
1598593635.8,286046999.3,N
1598593655.6,286046999.4,N
1598593675.4,286046997.1,N
1598593695.3,286046999.2,N
1598593715.1,286046999.4,N
1598593735.9,286046997.0,N
1598593755.7,286046997.3,N
1598593775.5,286046997.3,N
1598593795.4,286046997.2,N
1598593815.2,286046996.8,N
1598593835.1,286046995.3,Y
1598593836.0,286046995.3,P
1598593855.8,286046999.5,N
1598593875.6,286046998.5,N
1598593895.5,286046998.3,N
1598593915.3,286046998.3,N
1598593935.2,286046996.9,N
1598593955.9,286046998.3,N
1598593975.7,286046998.6,N
1598593995.6,286047000.3,N
1598594015.4,286046999.8,N
1598594035.2,286046998.4,N
1598594055.1,286046998.6,N
1598594056.0,286046998.6,N
1598594075.8,286047001.0,N
1598594095.7,286047000.8,N
1598594115.5,286046998.4,N
1598594135.3,286046998.7,N
1598594155.2,286046998.8,N
1598594175.0,286046999.4,N
1598594175.9,286046999.4,N
1598594195.8,286046999.1,N
1598594215.6,286046996.7,N
1598594235.4,286046998.8,N
1598594255.3,286046996.8,N
1598594275.1,286046996.7,N
1598594295.8,286046995.4,Y
1598594315.7,286046996.5,P
1598594335.5,286046996.6,P
1598594355.4,286046999.5,N
1598594375.2,286046999.4,N
1598594395.0,286046999.6,N
1598594395.9,286046999.6,N
